Wetbulb
59.49 59.73 59.56 59.51 59.27 59.05 59.23 59.37 59.43 59.50 59.40 59.59 59.59 59.46 59.40 59.50 58.50 50.46 46.22 54.98 56.77 64.85 64.00 53.81 51.38 49.51 49.02 48.74 50.71 49.97 45.05 44.50 49.29 50.30 51.25 55.38 53.52 55.98 59.70 59.72 61.18 62.23 60.87 62.61 64.62
59.05 59.38 59.37 59.14 59.16 58.83 58.89 58.89 59.08 58.97 59.10 59.36 59.09 59.04 59.15 59.39 52.50 48.03 57.65 64.15 65.77 66.70 51.87 49.28 48.35 48.39 45.23 46.56 48.41 47.27 42.23 45.56 52.88 54.13 53.66 54.95 53.94 55.80 57.10 58.79 57.68 61.13 63.42 64.76 65.57
58.65 59.13 59.08 59.02 59.11 58.75 58.70 58.84 58.76 58.90 59.22 58.92 58.73 58.86 59.07 58.06 47.23 51.87 67.72 66.70 67.50 67.19 51.23 50.57 49.04 47.16 42.67 42.80 44.91 46.07 44.82 48.92 53.14 56.18 56.23 55.13 54.12 55.97 55.18 52.66 58.16 59.42 61.49 63.41 63.65
58.24 58.45 59.02 58.77 58.86 58.42 58.48 58.58 58.61 58.49 58.73 58.45 58.28 58.94 59.23 53.02 43.28 52.24 68.97 68.82 68.17 55.50 51.25 49.32 46.73 42.73 42.41 42.55 45.05 43.44 48.94 51.08 53.28 57.15 55.46 55.07 56.36 55.38 54.36 55.60 61.47 63.04 63.84 63.07 62.45
57.97 58.21 58.54 58.49 58.27 57.97 58.09 58.19 58.00 57.64 57.45 57.75 58.49 59.32 53.78 45.92 48.25 57.85 67.73 66.60 53.85 52.64 50.24 48.48 47.99 45.59 43.46 45.49 45.86 45.87 47.77 52.32 55.03 55.79 56.67 56.90 55.15 55.07 54.79 59.11 63.61 64.10 63.90 62.19 61.56
57.42 57.70 57.68 57.90 57.60 57.56 57.51 57.25 56.97 56.87 57.36 58.07 59.14 59.55 49.10 43.12 52.58 59.77 56.19 54.84 51.15 50.00 51.06 51.10 50.20 50.17 47.65 46.86 46.05 49.12 50.82 49.09 53.47 53.62 55.05 54.73 54.82 54.96 55.63 60.84 62.70 63.01 62.13 61.53 62.53
56.52 56.69 57.11 57.48 57.17 57.17 57.09 56.68 56.21 56.69 57.64 58.30 59.52 57.73 48.43 47.05 53.87 56.13 53.64 49.70 50.82 50.80 49.47 51.25 51.86 50.03 49.87 48.52 49.38 49.51 47.54 50.36 51.79 53.39 53.53 56.20 53.74 54.21 56.13 61.26 61.14 61.42 60.60 61.53 62.63
56.19 56.19 56.45 56.92 57.14 57.05 57.13 56.86 56.74 57.32 58.05 58.97 59.63 52.14 45.73 53.09 55.09 56.16 54.52 54.61 53.89 52.09 51.42 52.15 52.57 50.34 48.24 49.74 49.99 49.08 47.49 45.26 48.71 54.88 54.31 52.41 46.05 51.37 55.96 59.67 58.79 59.85 60.55 61.07 60.37
55.98 55.90 56.16 56.80 57.00 56.85 56.59 56.24 56.93 57.67 58.57 59.12 51.72 48.69 48.37 58.90 56.00 57.51 56.34 54.93 53.73 53.61 52.98 56.00 51.98 49.23 49.64 45.93 45.13 45.66 43.12 45.07 49.64 52.97 55.29 52.25 46.13 51.18 55.32 57.88 57.42 58.17 59.03 59.72 60.06
55.78 55.57 55.62 56.13 56.46 56.21 55.25 55.59 55.99 55.81 56.23 57.84 56.02 47.94 51.48 53.08 56.59 55.91 54.78 54.84 53.18 53.48 52.77 51.99 48.59 46.93 45.43 44.57 39.50 42.88 43.14 45.28 45.82 48.94 49.96 46.70 49.03 53.29 55.21 57.40 56.85 57.00 57.66 59.35 60.10
55.34 55.35 55.15 55.44 55.76 55.03 51.10 45.82 45.77 46.85 46.27 46.95 49.14 50.24 53.77 56.90 56.40 53.96 55.60 54.59 54.45 51.39 46.71 48.48 46.51 43.65 46.32 45.58 47.16 46.84 46.05 46.34 48.38 49.69 50.62 48.49 50.40 52.96 54.81 55.67 55.71 56.06 56.76 57.77 59.70
54.46 54.97 55.26 55.24 55.44 54.84 50.05 44.22 48.88 48.12 44.37 49.86 49.63 52.26 54.71 55.26 51.22 53.05 56.28 52.30 51.15 46.59 48.32 47.13 44.19 48.92 49.46 49.12 48.27 48.19 44.43 43.70 46.34 52.52 51.37 48.62 48.79 51.37 53.91 53.55 55.03 56.21 56.40 57.58 59.61
53.76 54.27 54.73 55.12 54.99 50.20 44.60 46.37 49.21 47.49 43.30 51.46 51.36 50.92 51.01 52.89 51.55 51.62 54.30 51.69 49.23 46.90 46.13 44.59 48.28 50.88 49.67 48.03 47.64 45.11 45.43 44.71 45.61 49.13 49.25 48.58 46.95 48.11 52.38 53.49 56.11 58.01 57.65 58.49 60.57
53.24 53.80 54.29 54.96 47.72 45.19 45.78 49.51 48.36 48.42 44.04 48.20 51.04 53.04 52.84 51.96 50.95 54.83 54.44 51.50 48.52 45.61 47.61 45.83 48.86 48.83 47.88 47.79 47.64 45.10 49.88 49.04 48.49 44.20 41.44 47.06 38.28 45.45 48.52 50.17 51.54 51.30 56.94 58.18 60.19
53.00 53.74 54.21 52.86 48.05 47.67 48.44 47.40 45.77 51.04 34.71 51.15 52.30 54.53 51.58 50.65 50.69 53.24 55.29 52.32 47.34 48.11 46.97 46.59 47.56 47.14 48.50 48.49 49.99 48.17 50.58 50.03 48.07 44.49 43.84 45.04 42.77 44.05 46.50 46.42 48.10 54.57 58.10 59.08 59.13
52.85 53.49 54.02 51.46 47.45 49.61 50.70 47.97 50.38 43.64 38.46 48.36 51.53 48.02 47.28 48.62 50.36 52.36 51.68 52.18 51.92 47.96 47.93 47.31 50.52 50.54 50.30 52.74 52.52 52.06 47.86 46.00 44.48 41.97 38.49 41.95 41.36 40.85 43.50 45.30 48.26 54.01 56.10 58.83 59.19
52.58 53.06 52.60 52.89 45.03 50.06 48.23 50.73 42.18 38.12 49.86 45.49 46.09 46.45 46.15 47.14 48.80 49.94 48.65 45.44 44.53 41.44 42.12 49.10 49.67 52.47 52.92 49.77 51.44 48.51 43.19 37.09 36.74 37.09 36.25 43.07 42.11 40.53 47.63 50.17 51.70 52.71 53.73 54.75 56.30
51.38 52.19 51.61 54.22 49.87 49.85 51.61 47.05 36.58 45.61 47.34 50.33 47.34 46.19 45.67 47.39 47.06 49.53 46.36 43.99 46.37 46.90 44.83 43.35 43.18 50.51 54.69 49.93 47.25 46.11 43.22 37.75 32.76 34.51 37.24 43.65 37.90 41.41 49.49 51.22 52.77 54.48 53.94 55.09 55.26
51.20 49.56 49.07 52.20 53.21 50.07 49.28 40.03 41.40 45.80 51.48 49.22 46.56 43.67 43.74 46.33 46.46 47.06 45.44 45.51 48.16 48.69 44.98 43.92 45.34 52.94 54.33 53.39 50.84 46.99 44.28 45.24 39.76 38.11 36.63 38.40 41.52 48.08 50.38 50.83 51.96 52.09 53.28 53.45 53.94
49.98 49.24 49.94 52.98 53.26 53.08 47.50 42.54 46.29 52.04 53.59 51.14 44.58 46.08 41.57 43.04 44.40 43.80 44.59 49.92 51.52 52.94 51.60 48.47 43.76 51.52 53.70 53.00 52.35 48.69 50.49 41.40 40.57 33.19 32.14 37.88 38.37 38.47 45.52 47.41 49.98 50.26 50.66 52.16 52.88
50.82 49.49 53.57 53.81 55.94 49.66 43.83 45.05 50.21 54.32 53.67 51.48 48.67 48.53 48.38 46.72 45.03 43.32 46.12 51.22 53.50 52.77 51.77 49.11 45.95 47.57 49.93 47.43 45.29 45.88 44.96 44.31 41.53 38.64 33.97 33.36 37.21 45.67 46.56 48.18 48.93 49.64 50.94 50.99 51.03
49.51 46.36 53.83 54.62 48.07 44.58 44.97 48.72 50.56 52.13 53.12 52.16 51.80 50.94 49.77 50.43 45.35 48.02 48.50 51.11 55.30 54.71 50.38 49.98 45.73 42.78 45.13 50.52 52.25 48.30 45.78 42.75 37.70 37.15 38.25 37.24 39.44 48.88 49.04 49.22 50.31 51.42 52.35 50.83 50.82
44.67 47.66 55.60 54.10 43.83 42.15 46.27 49.83 52.57 51.96 51.77 52.66 51.93 52.55 52.02 48.78 47.41 50.37 50.83 56.85 56.85 54.49 50.27 49.58 43.72 39.51 42.90 45.63 48.15 46.10 47.70 45.07 43.08 41.05 39.15 36.54 38.99 50.49 51.03 51.51 52.57 51.06 51.28 50.91 50.32
46.68 46.58 49.35 48.22 45.84 44.60 43.56 46.64 48.61 52.59 52.32 51.31 51.11 52.20 50.01 48.61 51.02 48.56 51.39 54.40 55.52 54.42 56.43 51.96 43.55 42.62 39.12 42.16 45.84 44.77 47.44 47.80 44.01 38.90 40.19 41.37 42.38 46.65 49.45 49.67 50.69 49.61 49.60 48.62 48.55
49.93 48.98 51.25 43.28 43.92 43.32 46.15 47.61 46.82 47.88 49.28 49.86 48.67 50.47 49.36 45.45 49.27 49.18 52.03 52.20 55.33 55.78 53.64 46.34 44.23 44.26 45.64 48.89 49.29 48.16 48.43 48.08 44.64 44.54 41.09 43.07 44.64 46.43 49.15 49.30 49.32 51.19 49.50 48.39 47.89
45.75 45.95 47.86 50.30 50.48 45.11 44.26 45.53 48.57 49.88 48.09 47.32 46.68 50.75 52.89 49.57 50.15 49.29 50.97 48.17 49.09 51.97 49.95 47.98 45.35 44.99 45.39 49.52 48.97 47.11 48.03 48.07 48.03 47.73 46.57 46.63 44.88 49.80 50.67 50.27 50.70 49.99 50.01 48.26 48.06
47.96 49.01 50.37 47.90 48.51 44.66 47.37 49.59 49.71 49.82 50.73 52.01 49.67 51.34 52.20 54.07 55.48 51.76 51.25 51.89 51.33 49.85 50.15 48.11 44.60 42.07 40.39 46.66 46.28 42.28 47.61 47.46 47.98 48.19 47.71 44.12 47.20 50.27 49.10 50.18 49.58 49.74 49.48 48.31 47.86
MSLP
1018.77 1018.71 1018.69 1018.56 1018.36 1017.99 1017.91 1017.74 1017.49 1017.26 1016.92 1016.47 1015.93 1015.33 1014.90 1014.63 1013.81 1013.25 1012.21 1009.64 1009.16 1008.80 1009.62 1009.68 1009.42 1009.70 1009.75 1010.21 1010.47 1011.10 1012.68 1013.43 1012.79 1012.69 1012.01 1011.33 1010.84 1010.75 1010.74 1011.31 1011.39 1011.32 1011.49 1011.17 1012.13
1018.65 1018.65 1018.55 1018.38 1018.27 1017.81 1017.83 1017.65 1017.44 1017.21 1016.85 1016.44 1015.85 1015.27 1014.77 1014.50 1013.89 1012.05 1009.06 1008.83 1008.80 1009.03 1009.56 1009.66 1009.84 1009.83 1010.09 1010.48 1010.68 1011.28 1012.34 1012.01 1010.96 1011.11 1010.86 1010.38 1010.73 1010.67 1011.00 1011.27 1011.48 1011.18 1011.26 1011.45 1012.18
1018.51 1018.49 1018.34 1018.12 1018.13 1017.63 1017.59 1017.60 1017.39 1017.09 1016.85 1016.34 1015.71 1015.19 1014.59 1014.37 1013.44 1009.95 1008.55 1008.45 1008.79 1009.17 1009.58 1009.51 1009.65 1009.76 1010.07 1010.32 1010.27 1010.63 1010.87 1010.10 1009.61 1009.48 1009.83 1010.07 1010.55 1010.54 1010.82 1011.56 1010.80 1010.67 1011.23 1011.57 1012.14
1018.38 1018.19 1018.12 1017.93 1017.98 1017.49 1017.35 1017.50 1017.27 1017.02 1016.77 1016.19 1015.62 1015.02 1014.30 1014.09 1012.25 1008.99 1008.67 1008.68 1008.89 1008.97 1009.33 1009.43 1009.46 1009.76 1010.10 1010.13 1009.83 1010.19 1008.91 1008.96 1008.68 1008.87 1009.24 1009.29 1009.92 1010.45 1010.76 1010.13 1009.63 1010.14 1010.48 1011.37 1011.85
1018.04 1017.93 1017.89 1017.76 1017.69 1017.23 1017.15 1017.34 1017.15 1016.87 1016.59 1016.05 1015.55 1014.99 1014.03 1013.43 1010.92 1008.98 1008.98 1008.93 1008.97 1009.10 1009.24 1009.26 1009.41 1009.72 1009.96 1009.69 1009.46 1009.37 1008.34 1008.17 1007.97 1008.39 1008.52 1008.80 1009.56 1010.23 1010.50 1009.66 1009.60 1010.00 1010.59 1011.30 1011.93
1017.81 1017.83 1017.68 1017.52 1017.31 1016.99 1017.03 1017.16 1016.93 1016.58 1016.33 1015.90 1015.45 1015.04 1014.47 1012.47 1009.00 1008.82 1009.09 1009.10 1008.99 1009.07 1009.10 1009.15 1009.29 1009.36 1009.40 1008.92 1008.93 1008.13 1008.36 1008.13 1008.11 1008.39 1008.57 1009.50 1010.02 1009.78 1010.13 1009.79 1010.01 1010.22 1011.04 1011.73 1012.59
1017.77 1017.48 1017.31 1017.22 1016.99 1016.74 1016.86 1016.88 1016.51 1016.16 1016.00 1015.73 1015.39 1015.03 1014.32 1010.53 1008.64 1008.89 1009.05 1008.99 1008.66 1008.67 1008.81 1008.75 1008.93 1009.07 1008.75 1008.61 1008.31 1008.22 1008.97 1008.37 1008.65 1008.89 1009.43 1009.56 1009.98 1009.83 1009.96 1010.10 1010.40 1011.02 1011.91 1012.28 1013.44
1017.08 1016.85 1016.84 1016.79 1016.66 1016.64 1016.61 1016.44 1015.94 1015.71 1015.63 1015.42 1015.23 1014.84 1012.70 1009.06 1008.56 1008.77 1008.82 1008.67 1008.19 1008.32 1008.28 1008.24 1008.48 1008.89 1008.96 1008.50 1008.55 1008.74 1008.74 1009.27 1009.05 1009.06 1009.34 1009.77 1010.07 1010.49 1010.28 1010.88 1011.53 1011.83 1012.47 1012.99 1014.27
1016.59 1016.55 1016.61 1016.57 1016.43 1016.49 1016.22 1015.80 1015.41 1015.28 1015.24 1015.23 1015.15 1014.32 1011.33 1008.55 1008.45 1007.42 1007.88 1008.34 1007.82 1007.80 1007.93 1007.85 1008.23 1008.82 1008.90 1009.48 1009.83 1010.07 1010.06 1009.61 1009.35 1009.08 1009.62 1010.55 1011.17 1011.24 1011.03 1011.51 1012.40 1012.39 1013.04 1013.82 1014.72
1016.69 1016.61 1016.56 1016.42 1016.27 1016.05 1015.73 1015.31 1014.92 1015.13 1014.76 1014.73 1014.25 1013.86 1010.36 1008.75 1007.83 1007.32 1007.35 1007.58 1007.85 1007.81 1007.78 1007.97 1008.76 1009.11 1009.64 1010.21 1011.37 1010.69 1010.61 1010.16 1009.74 1010.11 1010.47 1012.01 1012.58 1012.39 1012.51 1012.56 1013.18 1013.71 1014.23 1015.19 1016.07
1016.55 1016.34 1016.21 1015.99 1016.08 1015.84 1015.35 1014.78 1015.14 1015.06 1014.18 1013.01 1012.30 1011.56 1009.70 1008.33 1007.31 1006.93 1006.95 1007.39 1007.68 1007.96 1008.60 1008.89 1009.48 1010.01 1009.87 1010.44 1010.22 1010.42 1010.33 1010.25 1010.12 1010.65 1011.51 1012.86 1013.20 1013.42 1013.57 1013.89 1014.03 1014.16 1014.74 1016.28 1016.85
1016.34 1016.18 1015.79 1016.04 1015.71 1015.70 1015.80 1015.30 1014.02 1013.72 1013.05 1011.47 1011.16 1010.59 1009.30 1008.79 1008.28 1007.01 1006.68 1007.41 1007.80 1008.61 1008.89 1009.26 1009.45 1009.13 1009.70 1009.59 1009.82 1010.30 1010.49 1010.73 1011.25 1011.43 1012.21 1013.68 1014.09 1013.98 1014.09 1014.42 1014.59 1014.75 1015.47 1016.54 1017.11
1016.09 1015.73 1015.67 1015.45 1015.48 1015.89 1015.73 1014.47 1013.29 1013.04 1013.00 1010.70 1009.86 1009.14 1008.28 1008.37 1007.77 1007.12 1006.91 1007.41 1008.07 1008.64 1009.17 1009.79 1009.11 1008.88 1009.29 1009.80 1010.32 1010.44 1010.65 1010.93 1011.76 1012.57 1013.05 1013.40 1014.57 1014.63 1014.78 1014.66 1014.96 1015.08 1016.32 1016.91 1017.58
1015.75 1015.52 1015.45 1015.47 1015.94 1015.56 1014.60 1013.18 1012.97 1013.37 1012.87 1010.55 1008.94 1007.47 1007.28 1007.30 1007.30 1006.64 1006.87 1007.33 1008.16 1008.82 1009.14 1009.49 1008.94 1008.81 1009.24 1009.83 1010.06 1010.63 1010.74 1011.14 1011.81 1012.92 1014.00 1014.60 1016.42 1016.22 1015.91 1015.58 1016.08 1016.22 1016.77 1017.48 1017.99
1015.50 1015.41 1015.45 1015.51 1015.61 1015.01 1013.49 1013.21 1013.11 1013.16 1012.32 1009.81 1008.01 1006.57 1006.87 1007.26 1007.20 1006.72 1006.62 1007.25 1008.11 1008.91 1009.70 1009.61 1009.40 1009.42 1009.67 1010.10 1010.12 1011.01 1011.23 1011.87 1012.97 1013.84 1014.77 1015.83 1016.64 1017.68 1017.09 1016.83 1017.48 1017.46 1017.54 1017.86 1018.29
1015.53 1015.62 1015.25 1015.26 1015.49 1013.89 1012.96 1013.09 1013.07 1012.95 1011.12 1009.11 1007.55 1007.02 1007.23 1007.21 1007.10 1006.94 1007.04 1007.26 1008.05 1009.15 1009.87 1010.21 1009.79 1009.78 1010.17 1010.32 1010.45 1011.19 1011.99 1013.23 1014.58 1015.58 1016.86 1017.39 1017.63 1018.86 1018.49 1018.31 1018.37 1018.42 1018.67 1018.89 1018.60
1014.83 1014.96 1014.37 1014.28 1014.13 1013.05 1012.74 1013.12 1013.41 1012.72 1010.59 1009.05 1008.01 1007.70 1007.66 1007.69 1007.53 1007.41 1007.67 1008.28 1009.14 1010.28 1011.25 1010.81 1010.97 1010.93 1010.61 1010.90 1011.12 1011.79 1013.19 1015.14 1016.64 1017.50 1018.45 1018.03 1018.71 1020.22 1019.35 1019.01 1018.83 1018.98 1019.01 1018.79 1018.86
1014.82 1014.80 1014.54 1013.90 1013.13 1013.21 1013.04 1013.37 1013.45 1011.77 1010.26 1008.59 1008.20 1008.13 1008.30 1008.17 1008.10 1008.17 1008.66 1009.36 1009.91 1010.63 1011.85 1012.19 1012.13 1011.83 1011.59 1011.91 1012.47 1013.50 1014.35 1016.20 1017.81 1018.94 1019.08 1018.60 1019.99 1021.04 1020.60 1020.03 1019.77 1019.64 1019.36 1019.45 1019.67
1014.51 1014.96 1014.56 1012.56 1012.79 1013.75 1013.95 1014.09 1012.99 1011.41 1009.64 1008.85 1008.62 1008.72 1008.77 1008.58 1008.62 1008.84 1009.17 1009.72 1009.91 1010.45 1011.39 1012.77 1013.17 1012.69 1012.50 1012.51 1013.00 1014.04 1015.29 1016.59 1017.97 1019.45 1019.84 1020.39 1021.35 1021.24 1021.39 1021.13 1020.87 1020.64 1020.37 1020.59 1020.29
1014.35 1014.25 1013.01 1011.71 1012.41 1013.40 1014.15 1013.83 1012.53 1010.71 1009.41 1008.47 1008.85 1008.94 1009.19 1009.04 1009.11 1009.38 1009.51 1009.61 1009.81 1010.26 1010.67 1012.85 1013.53 1013.55 1013.01 1013.05 1013.31 1014.11 1015.72 1016.89 1018.08 1019.85 1020.86 1020.97 1021.39 1021.89 1022.32 1022.27 1021.85 1021.65 1021.31 1021.09 1020.90
1014.13 1013.67 1012.05 1011.71 1012.10 1013.42 1014.38 1013.61 1011.81 1009.78 1009.04 1008.43 1008.86 1009.12 1009.35 1009.42 1009.40 1009.67 1009.87 1009.82 1009.85 1010.59 1011.27 1012.64 1013.71 1014.40 1014.10 1014.55 1014.86 1015.21 1016.19 1017.44 1018.63 1019.84 1020.79 1021.73 1021.77 1021.72 1022.29 1022.44 1022.58 1021.93 1021.81 1021.49 1021.39
1014.49 1013.87 1012.27 1011.99 1012.97 1014.22 1014.03 1012.82 1011.27 1009.88 1008.90 1008.45 1008.73 1008.92 1009.28 1009.60 1009.81 1009.99 1010.09 1010.20 1010.37 1010.91 1012.24 1013.45 1014.70 1015.51 1015.54 1015.29 1015.12 1015.44 1016.27 1017.44 1019.05 1020.38 1021.13 1021.43 1021.90 1021.70 1022.07 1022.59 1022.79 1022.45 1022.03 1021.66 1021.63
1015.11 1014.20 1012.34 1011.96 1013.51 1014.32 1013.39 1012.38 1011.11 1010.17 1009.46 1008.96 1009.14 1009.17 1009.44 1009.72 1010.30 1010.47 1010.67 1010.91 1010.79 1011.43 1012.41 1013.39 1015.55 1016.41 1016.07 1015.89 1015.59 1015.97 1016.61 1017.49 1018.33 1019.63 1020.90 1021.76 1022.02 1021.89 1022.02 1022.01 1022.09 1022.33 1022.21 1022.07 1022.01
1015.71 1014.97 1013.88 1013.55 1013.90 1013.79 1013.45 1012.27 1011.22 1009.93 1009.52 1009.13 1009.42 1009.52 1009.94 1010.41 1010.61 1011.09 1011.45 1011.61 1011.51 1011.86 1012.61 1013.17 1015.63 1016.20 1016.49 1015.93 1015.79 1016.03 1016.48 1017.10 1017.98 1019.68 1020.46 1020.97 1021.65 1021.97 1022.06 1022.44 1022.22 1022.21 1022.26 1022.25 1022.12
1015.71 1015.91 1015.39 1014.91 1014.59 1013.98 1013.38 1012.59 1011.59 1010.42 1009.59 1009.45 1010.21 1010.65 1010.64 1011.10 1011.37 1011.85 1012.03 1012.17 1012.30 1012.54 1013.15 1014.13 1015.91 1016.20 1015.99 1015.63 1015.77 1016.10 1016.38 1017.03 1017.86 1018.65 1019.67 1020.24 1020.69 1021.07 1021.86 1022.27 1022.30 1022.44 1022.45 1022.40 1022.33
1016.60 1016.54 1015.83 1015.54 1015.00 1014.25 1013.78 1012.76 1011.82 1010.73 1010.19 1010.27 1010.72 1011.02 1010.77 1011.51 1011.83 1012.10 1012.38 1012.82 1013.01 1013.31 1013.97 1014.98 1016.29 1016.41 1016.74 1016.12 1016.26 1016.47 1016.64 1016.62 1017.44 1018.53 1019.24 1019.83 1020.65 1020.65 1021.61 1022.03 1022.52 1022.54 1022.55 1022.51 1022.50
1017.29 1016.91 1016.48 1016.14 1015.35 1014.72 1014.26 1013.25 1012.07 1011.15 1010.95 1010.97 1010.94 1011.15 1011.26 1011.57 1011.92 1012.37 1012.73 1012.97 1013.11 1013.89 1014.96 1015.82 1016.89 1017.49 1017.73 1017.20 1016.92 1017.18 1017.03 1016.94 1017.52 1018.13 1018.90 1019.92 1019.96 1020.62 1021.52 1022.02 1022.43 1022.41 1022.41 1022.45 1022.36
Wind_Speed
9 9 9 10 10 10 10 12 12 13 11 13 15 16 15 14 16 1 8 12 7 8 7 4 1 4 2 1 1 4 5 4 7 8 7 6 7 3 2 6 4 7 5 6 12
9 9 10 10 11 9 10 12 13 13 12 13 15 16 15 13 4 5 12 7 11 2 3 3 5 5 4 2 3 5 3 10 8 8 9 7 6 8 5 7 2 2 3 10 14
10 10 10 9 12 8 9 12 14 13 13 12 16 17 15 9 5 8 1 9 6 3 1 2 2 2 1 1 3 5 7 7 7 9 9 8 3 5 11 4 8 15 11 12 15
11 11 10 10 11 9 9 13 13 14 13 13 15 17 19 2 1 2 4 8 8 7 3 2 3 2 2 3 3 2 9 6 4 8 7 9 7 5 6 10 10 15 18 13 10
11 11 11 11 10 9 10 13 13 13 13 13 14 15 6 5 11 1 7 8 5 5 6 5 2 2 3 4 3 6 6 7 5 11 11 5 4 6 8 6 12 14 15 12 9
10 10 11 11 10 9 10 12 13 11 11 11 12 14 2 4 3 4 5 5 4 5 5 5 5 6 5 5 2 3 7 3 5 6 4 6 2 3 5 8 13 14 12 8 8
10 10 10 11 10 9 11 13 12 11 12 11 11 3 0 14 2 3 5 3 4 5 3 5 6 4 2 6 2 2 5 6 4 3 3 5 5 7 2 14 15 11 6 6 4
9 9 10 10 10 10 11 13 13 12 13 9 5 0 9 5 3 5 4 7 7 6 3 4 5 3 3 3 8 6 7 6 4 5 3 5 8 4 8 14 8 6 6 5 6
10 11 11 10 9 10 12 14 14 13 10 4 3 2 12 8 2 3 8 6 4 3 6 4 2 2 6 4 9 8 3 4 2 5 6 5 7 10 1 9 6 8 5 4 4
10 9 10 9 9 10 12 10 6 11 3 4 3 3 6 2 4 4 6 4 3 5 6 6 5 3 3 8 2 8 3 3 4 3 9 4 4 9 7 6 2 6 2 5 8
10 9 8 7 8 7 7 4 4 2 1 8 4 4 6 7 4 3 3 4 1 6 3 4 7 4 8 2 8 4 4 2 1 5 11 5 8 10 8 6 4 5 2 7 8
8 7 6 8 4 1 1 0 1 3 7 8 6 7 7 1 4 4 4 2 3 2 4 9 5 9 1 5 3 3 3 5 6 11 10 2 6 3 5 2 2 6 1 6 6
8 6 5 4 3 3 1 7 6 7 1 8 6 5 4 8 5 6 5 2 4 4 4 4 11 4 2 4 5 2 5 1 6 4 3 5 11 11 7 5 5 6 8 9 10
8 5 6 8 2 2 4 5 6 5 5 6 3 6 3 4 3 4 4 4 4 2 4 4 7 2 6 3 4 6 7 3 4 6 3 3 1 7 10 11 8 10 7 8 8
8 4 7 2 3 2 2 5 1 3 4 4 4 2 3 6 1 2 3 4 5 1 6 8 5 3 9 1 3 4 1 14 5 7 7 9 7 8 7 11 8 12 12 8 6
6 5 11 2 3 7 8 6 3 7 2 2 6 2 2 2 3 2 3 5 1 5 4 4 3 5 2 3 4 2 4 9 5 3 7 6 5 6 6 5 3 4 8 6 4
8 5 4 1 4 4 4 3 7 3 4 3 5 3 2 2 2 3 3 3 4 4 5 7 6 6 3 6 8 9 9 5 7 7 3 6 8 4 7 6 1 3 5 2 5
3 9 6 6 0 6 5 7 2 4 6 2 3 2 4 4 3 3 4 1 3 6 3 5 8 8 12 2 5 4 6 6 2 2 2 5 4 3 6 8 7 4 3 4 5
10 1 4 5 9 3 5 4 7 6 4 2 5 4 1 2 2 2 5 5 6 7 6 6 2 4 1 4 2 1 7 3 7 4 4 1 4 5 7 7 6 7 8 7 5
1 1 3 4 9 5 6 4 4 5 6 2 4 3 4 2 3 4 6 3 4 3 2 6 3 1 5 1 8 8 4 4 4 3 1 4 4 4 4 4 5 5 3 6 7
2 3 3 5 4 6 3 6 6 7 4 3 4 3 3 2 7 3 3 2 0 2 4 5 5 4 3 6 1 6 4 5 5 4 6 3 4 1 5 3 5 5 4 5 5
2 1 3 1 5 1 2 4 5 6 4 5 4 3 2 3 3 2 4 2 5 4 4 2 6 3 2 3 1 0 4 4 6 2 3 3 4 3 2 3 6 6 3 3 5
2 2 3 3 3 2 5 5 3 3 4 3 3 4 3 2 5 3 3 3 4 4 6 5 3 4 9 8 4 1 2 2 6 4 2 5 5 3 2 5 5 3 4 4 4
3 2 5 5 1 6 1 4 6 6 1 4 4 7 6 6 6 4 3 6 5 5 4 9 4 8 8 8 4 2 3 3 5 4 4 4 3 6 5 5 3 4 4 4 2
3 1 1 1 3 2 1 2 4 4 2 6 6 4 1 3 4 4 4 2 6 6 4 6 4 1 3 4 2 3 2 4 3 4 5 4 7 7 9 7 2 3 4 4 2
3 3 5 1 3 2 1 3 2 4 2 1 6 2 6 4 3 7 6 1 3 6 4 3 1 2 6 3 4 3 7 6 3 4 6 7 1 3 3 2 3 4 5 4 3
3 2 3 4 4 4 2 4 5 4 6 4 5 3 6 5 1 3 2 5 5 5 3 4 4 4 1 3 3 6 5 2 4 2 7 4 7 5 4 6 6 6 6 6 2
Wind_Direction
308 309 308 309 313 326 328 322 323 320 326 321 319 315 316 320 313 205 247 219 191 221 56 314 27 6 118 72 70 75 80 232 214 160 222 191 181 170 211 116 207 187 167 171 131
303 301 301 306 307 324 324 321 317 318 324 320 317 311 316 326 295 252 247 220 230 81 41 43 14 14 27 113 228 117 143 222 210 170 211 193 161 179 123 142 280 101 68 131 133
298 295 298 304 302 319 323 314 310 319 318 321 316 311 316 322 320 253 23 216 196 183 94 127 89 101 86 257 203 179 202 206 223 193 194 176 171 198 130 205 207 170 173 171 154
292 296 296 300 297 312 319 308 310 317 317 321 316 313 317 270 283 330 87 90 125 141 82 19 51 57 356 287 247 278 246 200 170 184 161 187 125 174 176 216 185 173 171 168 177
293 296 294 293 292 309 314 305 304 312 313 316 316 318 348 345 252 2 98 118 121 116 170 166 117 137 259 247 253 191 284 138 182 165 199 113 154 171 198 197 164 176 164 171 171
286 284 286 287 295 310 309 298 296 306 304 307 313 314 343 304 254 139 130 122 167 164 174 157 192 202 271 260 153 263 16 95 159 167 136 107 292 167 166 180 176 179 165 150 170
280 284 286 288 293 310 299 289 292 296 296 304 308 310 204 238 355 68 174 217 210 175 176 214 160 174 225 300 282 285 177 29 36 111 90 141 297 224 163 181 180 184 140 180 113
298 300 297 293 297 299 291 284 287 292 293 288 277 103 254 246 305 289 163 287 235 231 220 221 176 224 230 301 6 38 53 46 285 161 175 95 281 39 184 171 174 180 163 188 91
316 305 295 292 290 285 285 284 287 288 269 245 238 112 273 307 261 254 150 226 296 209 224 257 197 177 23 28 16 13 352 21 51 219 117 38 326 340 147 129 147 214 167 150 82
306 295 281 277 283 285 286 270 291 314 212 183 258 348 274 330 298 276 195 173 269 330 4 46 44 36 29 54 318 285 0 352 339 39 66 96 5 5 49 102 103 351 62 71 37
309 293 280 290 271 293 334 18 12 310 174 206 192 258 281 294 289 250 162 124 169 45 8 350 45 301 274 146 212 223 151 119 248 359 71 37 33 23 41 50 64 273 326 73 60
316 286 290 259 265 335 62 265 242 226 314 233 245 266 272 126 296 298 134 132 79 40 337 11 310 276 151 308 104 103 52 357 17 73 86 6 33 314 60 86 205 251 182 80 66
318 310 267 244 197 79 101 244 247 44 35 295 198 211 227 141 209 267 137 99 94 30 18 154 256 320 103 109 155 111 100 188 124 130 81 68 23 359 9 7 346 342 92 140 148
331 302 242 205 173 183 238 264 277 125 60 286 245 279 187 177 282 234 173 120 31 43 341 265 287 49 84 161 109 52 327 324 156 117 150 32 202 10 333 43 30 2 67 137 130
337 285 208 344 125 164 213 307 128 67 104 239 230 233 5 138 195 291 147 55 152 150 72 267 347 36 68 294 139 129 114 90 57 86 91 3 74 312 346 15 2 4 19 107 124
327 218 154 123 60 244 296 314 86 43 243 275 188 203 73 39 318 79 128 48 97 82 357 293 285 41 176 67 41 78 83 50 51 75 42 314 110 328 3 314 346 347 31 47 133
319 212 128 79 225 326 304 77 43 131 314 217 168 149 135 144 290 153 130 62 131 66 352 341 22 329 33 43 18 61 56 4 15 20 197 319 63 340 345 1 61 60 57 18 16
264 150 240 244 5 6 17 53 178 248 251 304 122 88 156 155 268 137 75 89 74 93 98 66 2 360 331 48 140 33 103 140 147 155 248 355 48 310 354 21 40 43 100 45 39
134 111 241 243 207 99 70 86 215 224 267 185 60 122 279 220 240 104 184 167 199 178 139 122 272 308 336 13 21 32 46 188 102 10 64 298 91 20 7 38 36 41 43 22 24
116 186 259 142 147 84 79 227 246 224 301 106 123 139 189 251 171 146 185 199 146 183 70 190 109 63 283 319 33 96 151 33 12 113 110 332 106 184 262 316 329 19 356 28 22
45 42 276 155 91 52 149 235 269 269 286 105 154 109 206 219 197 157 197 63 83 97 59 130 105 291 4 19 289 14 26 58 112 108 146 166 270 156 200 285 302 269 325 7 45
73 40 311 260 63 354 177 215 287 304 323 47 100 147 130 175 101 123 152 100 352 156 64 351 117 95 128 240 7 56 148 124 114 287 52 126 271 205 200 292 288 276 319 53 73
92 260 321 100 139 286 284 273 244 291 308 87 46 11 16 84 101 93 70 339 35 96 146 180 21 43 346 354 3 29 83 109 107 95 185 124 254 136 34 285 263 257 106 87 87
88 66 344 51 112 148 217 295 321 313 358 82 49 56 46 32 32 128 99 18 359 69 79 93 116 152 182 208 152 236 164 117 101 106 174 206 167 232 211 240 211 49 118 102 72
35 75 175 199 297 195 136 293 302 317 47 35 48 39 126 35 56 74 40 48 24 0 55 89 116 153 251 250 123 45 307 155 146 156 134 197 171 203 186 210 213 276 145 117 73
72 47 354 106 307 203 99 269 260 282 111 1 101 313 63 105 205 178 138 133 150 16 72 38 109 123 15 323 25 54 7 105 95 115 72 108 260 131 149 136 290 202 159 164 213
332 345 91 317 347 101 230 267 291 326 41 78 157 109 38 342 3 16 59 119 144 114 93 75 113 70 329 350 85 21 333 36 99 81 132 154 220 136 164 208 220 184 175 187 188